| time (UTC) | temp C | wind direction | speed KPH | gust KPH | rain 1hr cm | rain 24hr cm | rain mn cm | humidity % | barometer mb |
| 20260906074530 | 18 | 105 | 1.6 | 9.7 | 0.00 | 0.13 | 0.00 | 81 | 1017.9 |
| 20260906073008 | 17 | 110 | 3.2 | 11.3 | 0.00 | 0.13 | 0.00 | 81 | 1017.8 |
| 20260906071510 | 17 | 155 | 1.6 | 8.0 | 0.00 | 0.13 | 0.00 | 81 | 1018.1 |
| 20260906070018 | 17 | 105 | 3.2 | 12.9 | 0.00 | 0.13 | 0.00 | 81 | 1018.2 |
| 20260906064533 | 18 | 103 | 4.8 | 11.3 | 0.00 | 0.13 | 0.00 | 81 | 1018.1 |
| 20260906063027 | 18 | 132 | 1.6 | 4.8 | 0.00 | 0.13 | 0.00 | 81 | 1018.3 |
| 20260906061509 | 18 | 133 | 3.2 | 12.9 | 0.00 | 0.13 | 0.00 | 80 | 1018.2 |
| 20260906060022 | 18 | 113 | 4.8 | 11.3 | 0.00 | 0.13 | 0.00 | 80 | 1018.2 |
| 20260906054520 | 18 | 90 | 1.6 | 9.7 | 0.00 | 0.13 | 0.00 | 80 | 1018.3 |
| 20260906053030 | 18 | 92 | 3.2 | 6.4 | 0.00 | 0.13 | 0.00 | 79 | 1018.3 |
| 20260906051532 | 18 | 89 | 3.2 | 9.7 | 0.00 | 0.13 | 0.00 | 78 | 1018.2 |
| 20260906050012 | 18 | 95 | 4.8 | 11.3 | 0.00 | 0.13 | 0.00 | 78 | 1018.1 |
| 20260906044520 | 18 | 139 | 4.8 | 11.3 | 0.00 | 0.13 | 0.13 | 78 | 1018.0 |
| 20260906043026 | 18 | 142 | 3.2 | 9.7 | 0.00 | 0.13 | 0.13 | 78 | 1018.2 |
| 20260906041538 | 18 | 142 | 1.6 | 12.9 | 0.00 | 0.13 | 0.13 | 78 | 1018.4 |
| 20260906040033 | 18 | 132 | 1.6 | 9.7 | 0.00 | 0.13 | 0.13 | 77 | 1018.7 |
| 20260906034525 | 18 | 155 | 1.6 | 9.7 | 0.00 | 0.13 | 0.13 | 77 | 1018.6 |
| 20260906033025 | 18 | 171 | 1.6 | 12.9 | 0.00 | 0.13 | 0.13 | 76 | 1018.6 |
| 20260906031524 | 18 | 120 | 1.6 | 4.8 | 0.00 | 0.13 | 0.13 | 75 | 1018.5 |
| 20260906030031 | 18 | 121 | 3.2 | 16.1 | 0.00 | 0.13 | 0.13 | 75 | 1018.4 |
| 20260906024532 | 18 | 100 | 4.8 | 14.5 | 0.00 | 0.13 | 0.13 | 75 | 1018.1 |
| 20260906023017 | 19 | 92 | 4.8 | 14.5 | 0.00 | 0.13 | 0.13 | 75 | 1017.9 |
| 20260906021519 | 19 | 102 | 4.8 | 12.9 | 0.00 | 0.13 | 0.13 | 75 | 1017.8 |
| 20260906020026 | 18 | 91 | 6.4 | 16.1 | 0.00 | 0.13 | 0.13 | 75 | 1017.9 |
| 20260906014534 | 19 | 101 | 6.4 | 19.3 | 0.00 | 0.13 | 0.13 | 75 | 1017.2 |
| 20260906013033 | 19 | 144 | 1.6 | 11.3 | 0.00 | 0.13 | 0.13 | 74 | 1017.3 |
| 20260906011516 | 19 | 99 | 3.2 | 12.9 | 0.00 | 0.13 | 0.13 | 74 | 1017.3 |
| 20260906010026 | 20 | 119 | 3.2 | 9.7 | 0.00 | 0.13 | 0.13 | 73 | 1017.2 |
| 20260906004531 | 20 | 130 | 6.4 | 17.7 | 0.00 | 0.13 | 0.13 | 72 | 1016.6 |
| 20260906003032 | 20 | 97 | 6.4 | 14.5 | 0.00 | 0.13 | 0.13 | 71 | 1016.5 |
| 20260906001534 | 21 | 147 | 6.4 | 14.5 | 0.00 | 0.13 | 0.13 | 71 | 1015.9 |
| 20260906000024 | 21 | 130 | 6.4 | 14.5 | 0.00 | 0.13 | 0.13 | 70 | 1015.6 |
| 20260905234527 | 21 | 98 | 4.8 | 17.7 | 0.00 | 0.13 | 0.13 | 70 | 1015.7 |
| 20260905233030 | 22 | 140 | 8.0 | 20.9 | 0.00 | 0.13 | 0.13 | 69 | 1015.5 |
| 20260905231531 | 22 | 98 | 4.8 | 17.7 | 0.00 | 0.13 | 0.13 | 69 | 1015.5 |
| 20260905230032 | 23 | 117 | 4.8 | 16.1 | 0.00 | 0.13 | 0.13 | 67 | 1015.7 |
| 20260905224525 | 23 | 97 | 3.2 | 9.7 | 0.00 | 0.13 | 0.13 | 66 | 1015.7 |
| 20260905223031 | 24 | 88 | 3.2 | 9.7 | 0.00 | 0.13 | 0.13 | 65 | 1015.3 |
| 20260905221538 | 24 | 175 | 1.6 | 9.7 | 0.00 | 0.13 | 0.13 | 67 | 1015.1 |
| 20260905220033 | 23 | 169 | 1.6 | 14.5 | 0.00 | 0.13 | 0.13 | 68 | 1015.2 |
| 20260905214536 | 23 | 155 | 1.6 | 14.5 | 0.00 | 0.13 | 0.13 | 69 | 1015.5 |
| 20260905213033 | 23 | 83 | 3.2 | 16.1 | 0.00 | 0.13 | 0.13 | 70 | 1015.7 |
| 20260905211532 | 23 | 126 | 3.2 | 9.7 | 0.00 | 0.13 | 0.13 | 68 | 1016.0 |
| 20260905210034 | 23 | 153 | 3.2 | 8.0 | 0.00 | 0.13 | 0.13 | 69 | 1015.9 |
| 20260905204535 | 22 | 70 | 4.8 | 20.9 | 0.00 | 0.13 | 0.13 | 71 | 1016.3 |
| 20260905203024 | 21 | 105 | 9.7 | 20.9 | 0.03 | 0.13 | 0.13 | 72 | 1016.3 |
| 20260905201528 | 21 | 78 | 3.2 | 14.5 | 0.08 | 0.13 | 0.13 | 75 | 1016.8 |
| 20260905200006 | 20 | 184 | 1.6 | 12.9 | 0.08 | 0.13 | 0.13 | 79 | 1017.6 |
| 20260905194516 | 18 | 149 | 3.2 | 16.1 | 0.13 | 0.13 | 0.13 | 80 | 1017.1 |
| 20260905193019 | 18 | 64 | 4.8 | 9.7 | 0.10 | 0.10 | 0.10 | 78 | 1017.3 |
| 20260905191526 | 18 | 213 | 0.0 | 6.4 | 0.05 | 0.05 | 0.05 | 77 | 1019.6 |
| 20260905190041 | 18 | 68 | 8.0 | 14.5 | 0.05 | 0.05 | 0.05 | 75 | 1018.6 |
| 20260905184508 | 18 | 70 | 0.0 | 4.8 | 0.00 | 0.00 | 0.00 | 75 | 1020.0 |
| 20260905183017 | 19 | 313 | 0.0 | 3.2 | 0.00 | 0.00 | 0.00 | 74 | 1021.4 |
| 20260905181524 | 20 | 313 | 1.6 | 3.2 | 0.00 | 0.00 | 0.00 | 74 | 1021.0 |
| 20260905180026 | 20 | 313 | 0.0 | 6.4 | 0.00 | 0.00 | 0.00 | 72 | 1020.6 |
| 20260905174538 | 21 | 69 | 0.0 | 4.8 | 0.00 | 0.00 | 0.00 | 69 | 1020.2 |
| 20260905173024 | 21 | 69 | 1.6 | 8.0 | 0.00 | 0.00 | 0.00 | 66 | 1019.3 |
| 20260905171523 | 22 | 26 | 1.6 | 14.5 | 0.00 | 0.00 | 0.00 | 67 | 1018.8 |
| 20260905170024 | 21 | 114 | 3.2 | 6.4 | 0.00 | 0.00 | 0.00 | 69 | 1019.4 |
| 20260905164528 | 21 | 115 | 1.6 | 6.4 | 0.00 | 0.00 | 0.00 | 67 | 1019.3 |
| 20260905163034 | 21 | 122 | 1.6 | 9.7 | 0.00 | 0.00 | 0.00 | 69 | 1018.6 |
| 20260905161512 | 20 | 84 | 6.4 | 12.9 | 0.00 | 0.00 | 0.00 | 70 | 1018.2 |
| 20260905160026 | 20 | 103 | 3.2 | 12.9 | 0.00 | 0.00 | 0.00 | 70 | 1018.1 |
| 20260905154531 | 20 | 90 | 1.6 | 16.1 | 0.00 | 0.00 | 0.00 | 71 | 1018.1 |
| 20260905153030 | 20 | 96 | 3.2 | 14.5 | 0.00 | 0.00 | 0.00 | 70 | 1017.8 |
| 20260905151514 | 20 | 115 | 4.8 | 19.3 | 0.00 | 0.00 | 0.00 | 70 | 1017.6 |
| 20260905150016 | 20 | 32 | 3.2 | 11.3 | 0.00 | 0.00 | 0.00 | 71 | 1017.7 |
| 20260905144527 | 18 | 142 | 4.8 | 14.5 | 0.00 | 0.00 | 0.00 | 74 | 1017.5 |
| 20260905143031 | 18 | 120 | 6.4 | 16.1 | 0.00 | 0.00 | 0.00 | 74 | 1017.8 |
| 20260905141531 | 18 | 90 | 3.2 | 14.5 | 0.00 | 0.00 | 0.00 | 74 | 1017.9 |
| 20260905140016 | 17 | 118 | 1.6 | 9.7 | 0.00 | 0.00 | 0.00 | 75 | 1017.9 |
| 20260905134523 | 18 | 113 | 6.4 | 11.3 | 0.00 | 0.00 | 0.00 | 73 | 1017.6 |
| 20260905133024 | 18 | 77 | 3.2 | 16.1 | 0.00 | 0.00 | 0.00 | 74 | 1017.5 |
| 20260905131546 | 17 | 96 | 4.8 | 12.9 | 0.00 | 0.00 | 0.00 | 76 | 1017.6 |
| 20260905130035 | 17 | 96 | 3.2 | 16.1 | 0.00 | 0.00 | 0.00 | 78 | 1017.8 |
| 20260905124535 | 17 | 80 | 3.2 | 11.3 | 0.00 | 0.00 | 0.00 | 79 | 1018.0 |
| 20260905123023 | 17 | 152 | 0.0 | 8.0 | 0.00 | 0.00 | 0.00 | 79 | 1017.9 |
| 20260905121533 | 17 | 211 | 4.8 | 14.5 | 0.00 | 0.00 | 0.00 | 79 | 1018.0 |
| 20260905120033 | 17 | 114 | 1.6 | 9.7 | 0.00 | 0.00 | 0.00 | 79 | 1017.8 |
| 20260905114541 | 17 | 124 | 1.6 | 14.5 | 0.00 | 0.00 | 0.00 | 79 | 1017.5 |
| 20260905113023 | 17 | 105 | 4.8 | 16.1 | 0.00 | 0.00 | 0.00 | 79 | 1017.2 |
| 20260905111510 | 17 | 96 | 6.4 | 14.5 | 0.00 | 0.00 | 0.00 | 79 | 1016.8 |
| 20260905110007 | 17 | 172 | 3.2 | 12.9 | 0.00 | 0.00 | 0.00 | 80 | 1016.8 |
| 20260905104512 | 17 | 138 | 1.6 | 16.1 | 0.00 | 0.00 | 0.00 | 79 | 1016.4 |
| 20260905103028 | 17 | 127 | 4.8 | 12.9 | 0.00 | 0.00 | 0.00 | 79 | 1016.1 |
| 20260905101527 | 17 | 96 | 1.6 | 11.3 | 0.00 | 0.00 | 0.00 | 79 | 1016.3 |
| 20260905100007 | 17 | 44 | 4.8 | 12.9 | 0.00 | 0.00 | 0.00 | 79 | 1016.2 |
| 20260905094508 | 17 | 106 | 1.6 | 14.5 | 0.00 | 0.00 | 0.00 | 79 | 1016.1 |
| 20260905093012 | 17 | 92 | 6.4 | 16.1 | 0.00 | 0.00 | 0.00 | 79 | 1016.0 |
| 20260905091519 | 17 | 90 | 3.2 | 11.3 | 0.00 | 0.00 | 0.00 | 79 | 1016.5 |
| 20260905090033 | 17 | 74 | 3.2 | 14.5 | 0.00 | 0.00 | 0.00 | 79 | 1016.6 |
| 20260905084520 | 17 | 223 | 1.6 | 12.9 | 0.00 | 0.00 | 0.00 | 79 | 1016.7 |
| 20260905083017 | 17 | 84 | 3.2 | 14.5 | 0.00 | 0.00 | 0.00 | 79 | 1016.7 |
| 20260905081516 | 17 | 88 | 1.6 | 14.5 | 0.00 | 0.00 | 0.00 | 78 | 1016.6 |
| 20260905080023 | 17 | 99 | 3.2 | 12.9 | 0.00 | 0.00 | 0.00 | 78 | 1016.8 |